Vorticity
14 12 10 10 10 11 12 11 10 11 15 15 16 16 17 15 13 13 13 16 17 19 21 23 25 26 26 26 26 24 22 20 18 16 15 15 14 12 10 7 5 4 4 5 6 7 6 6 7 7 8 7 7 6 6 5 4 4 4 12 14 11 4 1 -1 0 2 3 3 3 3 4 5 7 8 10 11 11 9 7 10 15 18 14 9 5
13 12 11 10 10 10 11 10 11 13 18 17 16 16 16 15 14 12 13 14 15 16 18 20 22 24 24 24 23 21 19 17 16 15 14 14 12 9 7 6 5 5 5 6 7 7 8 8 8 7 7 7 6 5 4 4 3 3 4 14 15 10 2 -2 -3 -2 1 3 4 5 5 6 6 6 7 9 11 13 13 10 13 16 16 11 6 3
12 12 11 10 9 8 6 6 10 16 22 19 16 15 15 15 14 13 12 13 14 15 15 17 18 20 20 20 19 18 17 16 15 14 13 10 7 7 10 7 6 6 7 8 8 9 9 9 9 8 7 6 5 4 3 3 3 3 5 12 12 7 -1 -4 -3 -1 2 5 7 7 8 7 6 5 5 7 11 15 15 13 16 17 14 9 6 4
12 12 10 9 8 6 -0 -3 4 15 27 22 16 13 14 14 14 13 13 12 12 13 13 14 15 16 16 16 16 15 15 14 13 10 4 -6 -8 0 22 22 17 10 8 11 11 11 11 11 10 8 6 5 4 4 3 4 3 3 5 9 7 2 -3 -2 0 3 6 8 9 8 7 6 5 4 5 9 15 18 17 17 18 18 14 9 7 7
11 11 10 9 8 4 -4 -13 -9 7 28 26 18 11 11 12 13 13 13 12 12 12 12 13 14 14 14 13 13 13 13 13 12 7 -3 -18 -23 -14 13 37 43 36 20 14 11 11 11 10 9 7 6 5 5 4 4 4 2 1 2 6 3 -3 -7 -3 2 6 9 9 8 7 4 3 4 7 11 17 21 22 18 19 19 18 14 11 9 9
9 10 10 9 8 5 -2 -15 -16 -4 21 27 21 12 9 10 11 12 13 13 12 12 12 12 13 13 13 12 11 11 11 12 12 9 3 -6 -13 -17 -18 9 38 58 55 32 18 10 7 4 2 1 2 3 3 2 -0 -0 -2 -3 0 3 0 -6 -12 -10 -4 2 6 7 6 4 1 3 8 15 23 28 28 24 17 19 19 17 14 11 10 8
8 9 10 10 10 8 5 -4 -9 -6 11 24 23 16 9 8 8 10 12 12 12 12 11 11 12 12 13 12 12 11 11 11 12 11 9 8 6 1 -10 -7 13 38 61 52 38 25 18 11 5 -0 -3 -1 -1 -2 -3 0 1 2 7 12 10 4 -6 -12 -10 -3 5 8 7 4 2 7 16 26 34 35 30 22 17 18 18 15 12 10 8 7
8 8 9 10 11 11 11 7 3 2 7 18 22 20 13 9 8 9 11 11 12 12 11 10 10 10 10 11 11 12 11 12 13 12 10 9 9 8 5 5 9 18 30 36 36 34 34 34 33 28 17 10 6 6 9 15 16 17 21 27 29 24 12 1 -1 3 12 15 13 9 7 13 22 31 39 35 26 19 17 17 16 13 10 7 6 6
9 9 11 11 12 12 13 13 11 9 8 13 18 21 17 13 10 10 10 11 11 11 12 11 10 9 8 9 10 11 11 12 13 13 12 10 9 8 8 9 10 13 15 14 14 16 21 31 44 53 52 33 19 13 20 24 20 15 16 22 24 23 19 14 14 17 21 21 17 12 10 15 23 30 36 29 21 16 19 17 14 11 8 5 4 5
13 12 13 14 14 13 13 13 11 10 9 10 14 18 20 16 13 11 10 10 10 11 11 11 11 10 8 9 10 10 10 10 10 10 10 10 10 11 11 9 9 9 10 10 9 7 6 9 22 40 58 42 21 5 6 7 2 -2 2 7 10 11 12 15 17 19 20 18 14 11 9 12 19 25 29 21 16 16 22 18 14 11 8 5 4 4
16 16 15 15 15 15 16 14 11 9 8 8 10 13 18 18 16 13 11 10 10 10 11 11 11 11 10 9 9 9 10 10 9 9 8 7 7 8 9 9 9 8 8 9 9 9 7 4 7 18 37 35 18 0 -6 -5 -3 1 10 14 16 16 17 16 14 12 10 8 7 5 5 8 15 20 23 14 13 16 22 17 13 11 9 6 5 4
15 15 15 14 14 15 17 16 14 11 10 9 8 9 11 14 15 15 14 13 11 11 11 12 11 11 11 10 9 8 8 8 9 9 8 7 6 6 6 7 8 9 9 9 10 10 10 8 8 11 19 23 17 8 3 1 1 5 11 18 22 25 28 24 17 10 4 2 1 1 1 6 13 18 19 12 13 17 21 14 10 9 9 8 7 6
13 13 13 14 15 15 16 16 16 14 13 11 8 7 6 8 11 14 15 14 13 11 11 11 11 11 10 10 9 9 8 8 8 8 8 7 6 5 5 5 6 8 9 10 11 12 12 11 11 12 14 17 17 15 12 8 5 3 2 5 10 15 22 25 21 15 7 4 1 1 2 8 13 18 18 14 15 18 19 10 6 5 6 7 7 7
10 11 11 12 14 15 15 16 16 15 13 11 9 8 6 6 7 9 12 13 13 12 11 11 12 13 12 10 9 8 7 7 7 7 7 7 6 6 7 7 7 8 9 10 11 12 13 13 13 13 14 14 13 12 9 6 2 -1 -4 -5 -5 -1 5 12 15 15 12 8 6 5 7 11 15 18 19 17 18 19 18 8 3 2 3 4 5 6
7 7 8 9 9 10 11 12 13 14 13 13 12 11 9 8 7 8 9 9 10 11 11 10 12 14 15 13 10 8 6 6 6 5 5 5 6 6 7 8 8 8 9 10 11 13 14 14 13 10 6 2 -0 -2 -2 -2 -5 -8 -11 -12 -12 -10 -6 0 5 9 11 11 11 12 13 16 17 18 18 18 19 19 17 8 3 2 2 2 2 3
4 4 5 5 5 6 6 8 9 11 12 14 14 14 13 12 11 10 9 9 9 10 10 9 11 14 19 21 18 12 7 6 5 4 4 4 4 4 5 6 6 7 8 10 11 13 16 13 6 -3 -11 -10 -7 -2 -0 1 1 -0 -3 -4 -5 -5 -3 -1 2 5 9 13 15 17 18 18 18 18 17 18 19 19 16 9 5 3 3 2 2 2
2 2 2 2 3 3 3 5 6 7 9 11 13 14 14 14 14 13 12 12 11 11 10 9 9 11 17 27 29 25 15 10 7 5 4 4 5 5 4 5 5 6 8 10 13 14 13 4 -4 -7 -3 8 13 14 12 12 14 15 15 12 9 7 6 4 4 5 9 13 16 18 18 17 17 17 16 17 18 17 15 10 7 6 6 5 5 4
0 0 1 1 1 2 2 3 4 5 5 7 8 10 12 13 14 14 14 14 14 14 13 12 11 10 11 22 30 34 28 19 14 10 7 7 7 7 6 6 7 8 9 11 13 13 8 1 0 5 16 23 24 20 16 16 17 19 20 18 15 14 12 9 7 7 9 12 13 14 13 13 13 15 16 17 17 16 14 11 8 7 7 7 7 7
-0 0 0 1 1 2 2 3 4 4 4 4 5 6 7 9 10 11 12 13 14 14 15 15 14 13 11 14 21 30 34 27 21 16 13 11 10 10 10 10 11 10 10 9 7 5 4 6 10 16 23 24 22 18 12 10 9 9 10 10 9 9 10 9 8 8 8 10 10 9 7 8 9 12 15 17 17 16 14 11 9 8 8 9 10 10
-0 0 0 1 1 2 3 3 4 4 4 4 4 4 5 5 6 7 9 10 11 13 14 15 16 15 14 12 14 20 28 28 25 21 17 15 14 13 14 15 13 11 9 13 12 6 -5 -5 0 9 17 22 21 16 6 4 3 3 4 5 7 7 7 8 8 8 9 9 9 8 7 6 8 12 16 19 19 17 15 13 11 10 10 10 11 12
0 0 0 1 1 2 3 3 4 4 5 5 5 6 6 5 5 6 6 7 8 9 10 12 13 15 16 15 14 15 17 21 23 24 22 20 18 18 17 17 14 11 11 28 33 28 19 12 9 11 17 21 20 14 5 3 5 9 12 13 12 11 9 8 8 9 9 10 11 11 11 12 14 17 21 22 21 18 15 13 12 11 10 10 10 10
0 1 1 1 1 2 3 3 4 4 5 6 7 7 7 6 6 6 6 6 7 7 7 8 9 12 15 16 17 16 13 12 15 19 21 20 21 21 21 19 13 6 -1 10 15 17 15 14 15 17 20 20 18 15 10 9 10 12 13 12 11 9 7 7 8 9 10 12 14 17 19 21 24 26 27 24 20 15 12 10 8 7 6 5 4 4
0 1 1 1 1 2 2 3 4 5 6 7 8 8 8 7 7 7 7 7 6 6 6 6 7 8 11 13 16 17 17 12 11 12 12 11 14 18 22 20 14 5 -4 -2 -0 1 1 1 4 9 14 15 15 13 11 11 11 10 8 7 6 6 6 7 9 11 13 15 17 20 22 25 28 30 28 22 16 10 6 4 3 1 0 -1 -2 -3
0 1 1 1 2 2 3 3 4 4 5 7 8 9 9 9 9 8 8 7 7 7 7 7 7 7 7 9 10 13 15 15 14 11 7 7 10 14 17 17 13 8 2 1 1 2 2 2 3 5 8 12 13 12 12 13 12 11 10 9 9 9 9 10 11 13 14 15 16 16 17 20 22 24 24 19 13 8 4 1 -0 -1 -1 -1 -2 -2
1 1 1 2 2 2 3 3 4 4 5 6 6 7 8 8 9 9 9 9 9 9 9 9 9 9 8 8 8 8 9 11 12 12 10 10 12 13 13 12 10 8 9 7 7 7 7 8 8 8 8 15 18 19 20 19 19 18 17 17 17 16 16 16 15 14 14 15 14 14 13 14 16 17 19 17 14 10 6 3 3 3 3 3 3 3
1 1 2 2 2 3 3 3 4 4 4 5 5 5 6 6 6 6 7 8 8 8 8 10 10 10 10 9 9 8 7 7 8 9 10 11 12 13 13 12 10 9 10 10 9 9 9 10 10 9 8 15 20 24 25 24 22 21 20 20 19 19 18 18 16 15 14 13 13 13 13 13 14 15 17 18 17 15 12 11 10 10 10 9 8 8
1 2 2 2 3 3 3 3 4 4 4 4 4 4 4 4 5 6 6 6 6 6 7 8 9 10 10 11 10 9 8 8 8 8 8 9 10 11 12 13 13 12 12 11 10 9 8 8 8 7 5 8 12 16 18 17 17 16 15 14 13 13 12 12 12 11 9 8 8 8 8 9 10 12 15 17 18 18 18 16 15 14 12 11 10 8
2 2 2 2 3 3 4 4 4 4 4 4 4 3 3 4 5 6 5 5 5 6 7 7 7 7 9 9 9 9 9 9 9 9 8 9 9 10 11 11 12 13 13 13 12 11 9 8 8 7 6 5 5 6 6 6 7 7 7 7 7 6 5 6 6 6 6 5 4 4 3 3 4 5 7 10 12 14 15 15 14 13 11 9 8 7
2 2 2 3 3 3 4 4 4 4 4 4 3 3 3 4 4 5 4 4 5 6 6 6 5 6 6 7 8 9 10 10 9 9 8 9 9 9 9 10 10 11 11 13 14 13 11 10 10 9 8 7 5 3 2 2 2 2 2 2 2 2 2 2 3 3 4 4 4 4 3 2 0 -0 0 2 4 6 8 10 10 10 9 8 7 6
2 3 3 3 3 3 4 4 4 4 4 4 4 3 3 3 4 4 3 3 4 5 5 4 4 5 5 5 7 8 9 8 8 8 8 9 9 8 8 9 9 9 9 10 12 14 14 13 12 12 11 10 8 6 4 3 3 3 2 2 1 1 1 1 2 2 3 4 5 6 6 5 3 1 -1 -2 -1 0 3 5 7 8 8 8 7 7
2 2 3 3 3 3 3 4 4 4 4 3 3 3 3 3 3 3 3 3 4 4 4 4 4 4 4 4 5 6 5 6 7 7 8 8 8 7 6 7 7 7 7 8 9 11 13 14 14 14 13 13 12 10 8 7 6 6 5 4 3 2 1 1 1 2 2 2 4 5 7 8 8 6 3 1 -1 -1 0 2 5 7 8 9 9 9
2 2 2 3 3 3 3 4 4 3 3 3 3 3 2 2 2 2 3 3 3 4 4 4 4 4 4 4 5 5 4 5 6 7 8 8 8 8 7 7 7 7 7 7 8 8 9 11 12 13 13 14 14 13 11 10 9 8 8 7 6 5 4 3 3 2 2 2 2 3 5 7 9 10 9 7 4 2 1 2 4 6 8 9 10 10
3 3 3 3 3 4 4 3 3 3 3 3 2 2 2 2 2 2 2 3 3 3 4 4 4 4 4 5 5 5 5 5 5 6 7 8 8 8 8 8 8 8 8 8 8 8 8 8 9 10 11 13 13 13 13 13 11 10 9 9 8 7 7 6 5 5 4 3 2 2 2 4 7 9 12 11 10 8 6 5 5 6 7 9 9 10
4 3 4 4 4 4 4 3 3 3 3 2 2 2 2 2 2 2 2 3 3 3 4 4 4 4 4 4 5 5 6 5 5 5 6 7 8 8 8 9 9 9 9 9 9 8 8 8 8 8 8 9 10 12 13 13 13 12 11 10 9 9 8 8 7 7 6 6 4 3 2 2 3 6 9 11 12 12 11 9 8 7 7 7 8 9
4 4 4 4 4 4 3 3 3 3 3 3 3 2 2 2 2 2 2 2 3 3 3 4 4 4 4 4 5 5 6 5 5 5 6 7 8 8 8 9 9 10 10 10 10 10 10 9 8 7 7 7 8 9 10 11 12 12 13 12 11 10 9 9 8 8 8 7 7 6 4 3 2 3 5 8 11 13 14 13 11 9 7 7 7 7
5 5 5 4 4 4 4 3 3 3 3 3 3 3 3 3 3 3 3 3 2 2 3 3 4 4 5 5 5 5 5 5 5 5 6 7 7 8 8 8 8 9 10 11 11 11 11 11 11 9 8 8 8 9 9 9 10 11 12 12 12 12 11 10 9 8 8 8 8 7 7 5 4 3 3 5 8 11 14 14 12 10 8 7 7 7
6 6 5 5 4 4 4 4 4 4 4 4 4 4 4 3 3 3 3 3 2 2 2 3 3 4 5 6 6 6 6 5 6 6 6 7 7 8 8 7 7 8 8 9 10 11 12 12 12 12 10 9 9 9 9 9 9 10 11 11 11 11 12 11 11 10 9 9 8 7 7 7 6 5 4 4 6 8 12 14 13 11 9 7 7 7
7 6 6 5 5 4 4 4 4 4 4 4 4 4 4 3 3 3 3 2 2 2 3 3 3 4 4 5 5 6 6 6 7 7 7 7 7 8 7 7 7 7 7 7 8 9 10 11 12 13 12 11 10 9 9 9 9 9 10 10 11 11 11 11 11 11 11 10 9 8 8 7 7 7 6 5 5 7 10 12 12 11 9 7 6 6
7 6 6 5 5 5 4 4 4 4 4 4 4 4 3 3 3 3 2 2 2 3 3 3 4 4 4 5 5 5 6 6 6 7 7 7 7 7 7 7 7 7 6 6 6 7 8 9 10 12 13 13 12 11 10 9 9 9 10 10 11 11 12 12 11 11 11 11 10 9 8 8 8 8 7 7 7 7 8 10 11 10 9 7 6 6
6 6 6 5 5 4 4 4 4 4 4 4 4 3 3 3 2 2 3 3 3 3 4 4 4 4 5 5 5 6 6 6 7 7 7 7 7 7 7 7 7 7 6 6 6 6 6 7 8 10 11 13 14 14 13 11 10 9 9 10 11 12 12 12 12 12 12 11 11 10 9 8 8 8 8 7 7 7 7 8 9 10 9 7 6 6
5 5 5 5 4 4 4 4 4 4 4 4 4 3 3 3 2 2 2 2 3 3 4 4 4 5 5 6 6 6 6 7 7 7 7 7 7 7 7 7 7 7 6 6 6 6 6 6 7 8 9 11 13 14 15 14 13 12 10 10 10 10 11 11 11 12 12 12 12 11 11 10 9 8 8 8 7 7 7 7 8 9 8 7 6 5
4 4 4 4 4 4 4 5 5 4 4 4 4 3 3 3 3 2 2 3 3 3 4 4 4 4 5 5 6 6 7 7 7 7 8 8 8 8 8 7 7 7 6 6 6 6 6 6 7 7 8 9 11 13 15 15 15 14 12 11 11 11 11 11 12 12 12 12 13 12 12 11 10 9 8 8 7 7 7 7 7 7 7 7 7 6
4 4 4 4 4 4 5 5 5 5 4 4 4 3 3 3 3 3 3 4 4 4 4 5 5 5 5 5 6 7 8 8 8 8 8 8 8 8 8 7 7 7 6 6 6 6 6 6 6 7 7 8 9 11 13 15 16 16 15 14 14 13 12 12 12 12 11 12 12 13 13 12 12 11 10 9 8 8 7 7 7 7 7 6 6 6
4 4 5 5 5 5 5 5 5 5 4 4 4 4 3 3 3 3 4 4 4 4 4 5 5 6 6 6 6 7 7 8 8 9 9 9 8 8 8 8 7 7 7 7 6 6 7 7 7 7 7 8 8 9 11 13 14 15 16 16 16 14 13 12 12 12 11 12 12 12 13 13 13 12 12 11 10 9 8 7 7 7 6 6 6 5
6 6 6 6 6 6 6 6 5 5 4 4 4 3 3 3 3 3 3 4 4 5 5 5 6 6 7 7 7 7 7 8 9 9 9 9 9 8 8 8 7 7 7 7 6 6 6 7 7 7 7 8 8 9 10 11 13 14 15 16 16 16 15 15 14 13 12 12 12 12 12 13 13 13 13 12 11 10 9 8 7 7 6 6 5 5
7 7 7 7 7 6 6 5 5 4 4 4 3 3 3 3 3 3 4 4 5 5 6 6 7 7 8 8 8 8 8 9 9 9 9 9 9 9 8 8 7 6 6 6 6 6 6 6 7 7 8 8 9 9 10 11 12 13 14 15 16 17 17 17 16 15 14 13 13 12 12 12 13 13 14 13 13 12 11 9 8 7 6 6 5 5
7 7 7 7 7 6 6 5 5 4 4 3 3 3 2 3 3 4 5 5 6 7 7 7 8 9 9 8 9 9 9 9 9 9 9 9 9 8 8 8 7 7 6 6 6 6 6 6 7 7 8 9 9 10 10 10 11 12 13 14 15 16 17 18 18 17 16 15 15 14 13 13 13 13 14 14 13 13 12 11 10 9 8 7 6 5
7 7 7 7 6 6 5 5 4 4 4 3 3 3 3 4 5 6 7 8 8 9 9 9 9 9 9 9 9 9 9 9 9 9 9 9 9 9 8 8 7 7 6 6 6 6 6 6 7 7 8 8 9 10 10 10 11 12 12 13 15 16 17 18 18 19 18 17 17 16 15 14 13 13 14 14 14 14 13 12 11 10 9 8 7 6
7 7 7 6 6 6 5 5 4 4 4 3 3 4 5 6 7 8 9 10 10 10 10 9 9 9 9 9 9 10 10 10 10 10 10 9 9 9 8 8 7 7 6 6 6 6 6 7 7 8 8 9 9 10 11 11 11 11 12 13 14 15 16 17 19 19 20 19 19 18 16 15 14 14 14 14 15 15 14 13 12 11 10 9 8 8
7 7 7 7 6 6 6 5 5 4 4 4 4 5 6 8 9 10 11 11 10 10 10 9 9 9 9 9 9 10 10 10 10 10 10 9 9 8 8 8 7 7 6 6 6 6 7 7 8 8 9 9 9 10 11 11 11 12 12 13 13 15 16 17 19 20 20 20 20 19 18 17 16 15 14 14 15 15 15 14 13 12 11 9 9 8
8 7 7 7 7 6 6 5 5 4 4 5 6 7 8 9 10 10 10 10 10 9 9 9 8 9 9 9 10 10 10 10 10 10 9 9 9 8 8 8 7 7 6 6 7 7 7 7 8 9 10 9 9 10 10 11 11 12 12 12 13 14 16 17 19 20 20 21 21 21 20 19 17 16 15 15 15 16 16 15 13 12 11 10 9 8
Height
5634 5632 5630 5628 5626 5624 5622 5620 5618 5616 5614 5611 5609 5607 5604 5602 5601 5599 5597 5597 5596 5596 5596 5596 5597 5598 5599 5600 5601 5602 5604 5605 5607 5609 5611 5614 5616 5619 5623 5626 5630 5633 5636 5639 5642 5645 5648 5650 5651 5653 5656 5658 5661 5662 5664 5666 5669 5671 5672 5675 5678 5679 5679 5680 5681 5682 5683 5684 5685 5686 5687 5688 5688 5689 5690 5691 5691 5691 5692 5693 5693 5693 5693 5693 5693 5693
5635 5633 5631 5629 5627 5626 5624 5622 5620 5618 5616 5614 5612 5610 5608 5606 5603 5601 5601 5600 5600 5600 5600 5600 5601 5602 5603 5604 5605 5606 5608 5609 5611 5613 5615 5617 5619 5622 5626 5627 5630 5633 5636 5639 5643 5646 5648 5650 5651 5653 5656 5657 5659 5661 5663 5666 5668 5669 5671 5674 5676 5677 5678 5679 5680 5681 5681 5682 5683 5685 5686 5686 5687 5687 5688 5689 5689 5690 5691 5691 5692 5691 5691 5691 5691 5692
5635 5633 5632 5630 5629 5628 5626 5624 5622 5620 5618 5616 5614 5612 5611 5609 5607 5605 5604 5604 5604 5603 5603 5603 5605 5606 5607 5608 5609 5610 5611 5612 5614 5616 5618 5621 5623 5626 5628 5629 5631 5634 5636 5639 5641 5644 5647 5650 5652 5654 5656 5656 5658 5660 5663 5666 5667 5669 5670 5673 5675 5676 5676 5677 5678 5679 5680 5681 5682 5683 5684 5684 5685 5686 5686 5687 5687 5688 5689 5690 5690 5690 5689 5689 5689 5690
5636 5634 5633 5631 5630 5629 5628 5626 5624 5622 5620 5618 5617 5615 5613 5612 5610 5609 5608 5607 5606 5606 5606 5607 5608 5609 5610 5611 5612 5613 5615 5616 5617 5618 5620 5622 5625 5628 5631 5632 5634 5636 5639 5641 5643 5646 5648 5650 5652 5654 5656 5657 5658 5661 5663 5665 5667 5668 5670 5672 5674 5675 5675 5675 5676 5677 5678 5680 5681 5681 5682 5682 5683 5683 5684 5685 5686 5686 5687 5688 5688 5688 5687 5687 5688 5689
5636 5635 5634 5632 5631 5630 5629 5627 5626 5624 5622 5621 5619 5618 5616 5615 5614 5612 5611 5610 5609 5609 5609 5610 5611 5612 5613 5614 5616 5616 5617 5618 5619 5621 5622 5623 5624 5626 5629 5631 5633 5637 5641 5645 5646 5647 5649 5651 5653 5655 5656 5657 5659 5661 5663 5666 5667 5668 5669 5672 5673 5673 5673 5673 5674 5675 5676 5678 5679 5680 5680 5680 5681 5681 5682 5683 5684 5685 5686 5686 5686 5686 5686 5686 5687 5688
5637 5636 5635 5633 5632 5631 5629 5628 5627 5626 5624 5623 5621 5620 5619 5617 5616 5616 5615 5614 5613 5612 5612 5613 5614 5615 5616 5616 5618 5619 5620 5621 5621 5622 5623 5624 5625 5627 5629 5630 5631 5634 5639 5643 5647 5650 5651 5653 5656 5657 5658 5658 5660 5661 5664 5666 5667 5668 5668 5670 5671 5671 5671 5671 5672 5673 5675 5676 5677 5677 5678 5678 5678 5679 5679 5680 5682 5683 5684 5684 5684 5684 5684 5685 5686 5686
5637 5636 5635 5634 5633 5631 5630 5629 5628 5627 5626 5625 5623 5622 5621 5620 5619 5618 5617 5617 5616 5616 5616 5616 5616 5617 5618 5619 5620 5621 5621 5622 5623 5624 5625 5626 5627 5629 5630 5632 5632 5634 5636 5640 5644 5647 5650 5652 5656 5660 5662 5662 5662 5663 5665 5667 5668 5668 5667 5668 5669 5669 5670 5670 5671 5672 5673 5674 5675 5676 5676 5676 5676 5676 5676 5678 5680 5681 5682 5682 5682 5682 5683 5684 5684 5685
5638 5637 5636 5634 5633 5632 5631 5630 5629 5628 5627 5626 5625 5624 5623 5622 5621 5620 5620 5619 5619 5619 5618 5619 5619 5620 5620 5621 5621 5622 5623 5624 5624 5625 5626 5628 5629 5630 5632 5633 5635 5636 5638 5639 5641 5644 5646 5649 5651 5656 5660 5662 5664 5665 5666 5666 5667 5667 5667 5667 5667 5668 5669 5670 5670 5671 5672 5672 5673 5674 5674 5674 5674 5674 5675 5676 5678 5680 5681 5680 5680 5681 5681 5682 5683 5684
5638 5637 5636 5635 5634 5633 5631 5631 5630 5629 5628 5627 5626 5625 5624 5624 5623 5623 5622 5622 5621 5621 5621 5621 5621 5622 5622 5623 5624 5624 5625 5625 5626 5627 5628 5629 5630 5631 5633 5634 5636 5638 5640 5642 5643 5645 5646 5648 5649 5651 5655 5659 5663 5664 5664 5664 5664 5665 5665 5666 5666 5666 5667 5669 5669 5670 5670 5671 5671 5672 5672 5672 5672 5672 5673 5674 5676 5678 5679 5679 5679 5679 5680 5681 5682 5683
5639 5638 5636 5636 5635 5634 5632 5631 5631 5630 5629 5628 5627 5626 5626 5625 5625 5624 5624 5624 5624 5623 5623 5623 5624 5624 5624 5625 5626 5626 5626 5627 5628 5628 5629 5630 5631 5632 5633 5635 5636 5638 5640 5642 5644 5646 5648 5649 5650 5650 5652 5656 5660 5662 5661 5662 5662 5663 5663 5664 5665 5666 5667 5668 5668 5668 5668 5669 5670 5670 5671 5671 5671 5671 5672 5674 5676 5677 5677 5677 5677 5678 5679 5680 5681 5681
5639 5638 5637 5636 5636 5635 5634 5633 5632 5631 5630 5629 5628 5628 5627 5626 5626 5626 5625 5625 5625 5626 5626 5626 5626 5626 5626 5626 5627 5627 5628 5629 5629 5630 5631 5631 5632 5633 5634 5635 5637 5638 5640 5641 5644 5646 5648 5650 5651 5652 5653 5655 5657 5659 5660 5660 5661 5661 5662 5663 5664 5666 5666 5667 5666 5666 5667 5667 5668 5669 5669 5670 5670 5671 5672 5674 5675 5676 5676 5676 5676 5677 5677 5678 5679 5680
5640 5639 5638 5637 5636 5636 5635 5634 5633 5632 5631 5630 5629 5629 5628 5628 5627 5627 5626 5626 5626 5627 5627 5628 5628 5628 5628 5628 5629 5629 5630 5631 5631 5631 5632 5632 5633 5634 5635 5636 5637 5639 5640 5642 5644 5645 5647 5649 5651 5652 5654 5655 5657 5658 5659 5660 5660 5660 5661 5662 5663 5664 5665 5665 5665 5665 5666 5666 5667 5667 5668 5669 5669 5671 5672 5673 5674 5674 5675 5676 5676 5676 5676 5677 5678 5679
5641 5640 5639 5638 5637 5636 5636 5635 5634 5632 5632 5631 5630 5630 5629 5629 5629 5629 5628 5628 5628 5628 5629 5629 5629 5630 5630 5630 5630 5631 5631 5632 5632 5632 5633 5633 5634 5636 5637 5637 5638 5640 5641 5642 5644 5646 5647 5648 5650 5651 5653 5655 5656 5657 5658 5659 5660 5660 5660 5661 5662 5662 5663 5663 5664 5664 5665 5665 5666 5666 5667 5668 5668 5669 5671 5671 5672 5673 5674 5674 5675 5675 5675 5676 5676 5677
5642 5641 5640 5639 5638 5637 5636 5636 5635 5634 5633 5632 5632 5631 5631 5630 5630 5630 5629 5629 5629 5630 5630 5630 5630 5631 5631 5631 5631 5632 5632 5633 5633 5634 5634 5635 5636 5637 5638 5639 5640 5641 5642 5643 5644 5646 5647 5648 5649 5651 5652 5654 5655 5655 5656 5657 5659 5660 5660 5660 5661 5661 5661 5662 5662 5663 5664 5664 5665 5665 5666 5666 5667 5668 5669 5670 5670 5671 5672 5673 5673 5674 5674 5674 5675 5676
5642 5641 5641 5640 5639 5638 5638 5637 5636 5635 5635 5634 5633 5633 5632 5632 5631 5631 5630 5630 5630 5631 5631 5631 5631 5631 5632 5632 5632 5633 5633 5634 5634 5635 5635 5636 5636 5637 5638 5640 5641 5642 5643 5643 5645 5646 5647 5648 5649 5650 5651 5652 5653 5654 5656 5657 5659 5660 5660 5659 5660 5660 5661 5661 5661 5662 5662 5663 5664 5664 5665 5666 5666 5667 5667 5668 5669 5670 5670 5671 5672 5672 5672 5673 5674 5675
5643 5642 5642 5641 5641 5640 5639 5638 5638 5637 5636 5636 5635 5634 5634 5633 5632 5632 5631 5631 5631 5631 5631 5631 5631 5632 5632 5633 5633 5633 5634 5634 5635 5636 5636 5636 5637 5638 5639 5640 5641 5642 5643 5644 5645 5646 5647 5648 5649 5651 5653 5655 5657 5658 5659 5661 5661 5661 5659 5659 5659 5660 5660 5660 5660 5661 5661 5662 5663 5664 5665 5665 5665 5665 5666 5666 5667 5668 5669 5670 5670 5671 5671 5672 5673 5674
5644 5643 5642 5642 5641 5641 5640 5640 5639 5638 5638 5637 5636 5636 5635 5634 5634 5633 5633 5633 5632 5632 5632 5632 5632 5632 5632 5633 5633 5633 5634 5635 5636 5636 5636 5637 5638 5638 5639 5640 5641 5642 5643 5644 5645 5646 5647 5649 5651 5654 5657 5659 5661 5661 5660 5660 5660 5659 5658 5658 5658 5659 5659 5659 5659 5660 5661 5662 5662 5663 5663 5663 5663 5664 5665 5665 5666 5667 5667 5669 5669 5670 5670 5671 5671 5672
5645 5644 5643 5643 5642 5641 5641 5640 5640 5639 5639 5638 5638 5637 5636 5636 5636 5635 5634 5634 5634 5633 5633 5633 5633 5633 5633 5633 5633 5634 5634 5635 5636 5636 5637 5637 5638 5639 5639 5640 5641 5642 5643 5644 5645 5646 5648 5650 5653 5655 5656 5656 5655 5655 5656 5656 5657 5657 5657 5657 5657 5657 5657 5658 5658 5659 5660 5661 5661 5662 5662 5662 5662 5663 5663 5664 5665 5666 5666 5667 5667 5668 5669 5669 5670 5671
5645 5645 5644 5643 5643 5642 5641 5641 5640 5640 5639 5639 5638 5638 5637 5637 5636 5636 5636 5635 5635 5635 5635 5635 5635 5635 5635 5634 5634 5634 5634 5635 5636 5636 5637 5637 5638 5639 5639 5640 5641 5642 5642 5643 5644 5646 5648 5649 5649 5650 5651 5651 5651 5651 5651 5652 5653 5654 5655 5656 5656 5656 5656 5657 5657 5658 5659 5660 5660 5660 5660 5661 5661 5661 5662 5663 5663 5664 5665 5665 5666 5666 5667 5668 5669 5669
5646 5645 5645 5644 5643 5642 5642 5641 5641 5641 5640 5640 5639 5638 5638 5637 5637 5637 5636 5636 5636 5636 5636 5636 5636 5636 5636 5636 5636 5636 5635 5636 5636 5636 5637 5637 5638 5639 5639 5640 5641 5642 5642 5643 5644 5645 5646 5647 5648 5648 5649 5649 5649 5649 5650 5650 5651 5651 5651 5652 5652 5653 5654 5655 5656 5657 5658 5658 5659 5659 5659 5660 5660 5660 5661 5661 5662 5662 5663 5664 5664 5665 5666 5666 5667 5668
5646 5646 5645 5645 5644 5643 5642 5642 5641 5641 5640 5640 5639 5639 5638 5638 5637 5637 5637 5637 5636 5636 5636 5636 5636 5636 5636 5636 5636 5636 5636 5636 5637 5638 5638 5638 5638 5639 5639 5640 5641 5641 5643 5643 5644 5644 5645 5646 5646 5647 5647 5648 5648 5648 5648 5649 5649 5650 5651 5651 5651 5651 5652 5653 5654 5655 5656 5656 5657 5658 5658 5658 5658 5659 5659 5660 5661 5661 5662 5663 5663 5664 5664 5665 5666 5666
5646 5646 5645 5645 5644 5644 5643 5643 5642 5641 5641 5640 5640 5639 5639 5638 5638 5638 5637 5637 5637 5637 5637 5636 5637 5637 5637 5637 5637 5637 5636 5637 5637 5638 5638 5638 5639 5639 5640 5640 5641 5641 5641 5641 5641 5642 5643 5643 5644 5646 5646 5646 5647 5647 5648 5648 5648 5649 5650 5650 5651 5651 5652 5652 5653 5654 5655 5655 5656 5656 5657 5657 5657 5657 5658 5659 5660 5661 5661 5661 5662 5662 5663 5664 5664 5665
5646 5646 5645 5645 5644 5644 5643 5643 5642 5641 5641 5641 5640 5640 5639 5639 5639 5638 5638 5638 5637 5637 5637 5637 5637 5637 5637 5637 5637 5637 5637 5637 5637 5638 5638 5638 5639 5639 5640 5640 5641 5641 5641 5641 5640 5641 5641 5641 5642 5643 5645 5646 5646 5647 5647 5648 5648 5648 5649 5650 5650 5651 5651 5652 5653 5653 5654 5655 5655 5655 5656 5656 5656 5656 5657 5658 5658 5659 5659 5660 5661 5661 5662 5662 5663 5663
5646 5645 5645 5645 5644 5644 5643 5643 5642 5642 5641 5641 5641 5640 5640 5639 5639 5638 5638 5638 5638 5637 5637 5637 5637 5637 5637 5637 5637 5637 5637 5637 5637 5638 5638 5638 5638 5639 5639 5640 5640 5641 5641 5641 5641 5641 5641 5642 5642 5643 5644 5645 5646 5646 5646 5647 5647 5648 5648 5649 5649 5650 5651 5651 5652 5652 5653 5654 5654 5654 5654 5654 5655 5655 5656 5656 5657 5657 5658 5658 5659 5660 5660 5661 5661 5661
5645 5645 5644 5644 5644 5643 5643 5643 5642 5642 5641 5641 5641 5640 5640 5639 5639 5639 5638 5638 5638 5638 5638 5638 5637 5637 5637 5637 5637 5637 5637 5637 5637 5638 5638 5638 5638 5639 5639 5639 5640 5640 5641 5641 5641 5641 5641 5642 5643 5643 5644 5644 5645 5646 5646 5646 5646 5647 5647 5648 5648 5649 5649 5650 5650 5651 5651 5652 5653 5653 5652 5652 5653 5653 5654 5654 5655 5655 5656 5657 5657 5658 5659 5659 5659 5660
5645 5644 5644 5644 5643 5643 5643 5643 5642 5642 5641 5641 5641 5641 5640 5640 5640 5639 5639 5639 5639 5638 5638 5637 5637 5637 5637 5637 5637 5637 5637 5637 5638 5638 5638 5638 5638 5639 5639 5639 5639 5640 5640 5640 5640 5641 5641 5642 5642 5642 5643 5644 5644 5645 5645 5646 5646 5646 5646 5647 5647 5647 5648 5648 5649 5649 5650 5651 5651 5651 5651 5651 5651 5652 5652 5653 5653 5654 5655 5656 5656 5656 5657 5657 5658 5658
5644 5644 5644 5643 5643 5643 5642 5642 5642 5642 5641 5641 5641 5641 5640 5640 5640 5640 5640 5639 5639 5639 5638 5638 5638 5637 5637 5637 5638 5638 5638 5638 5638 5638 5638 5638 5638 5639 5639 5639 5639 5640 5640 5640 5640 5640 5640 5641 5641 5641 5642 5643 5644 5644 5645 5645 5645 5645 5645 5646 5646 5646 5647 5647 5647 5648 5649 5649 5650 5650 5650 5651 5651 5651 5651 5652 5652 5653 5653 5654 5655 5655 5656 5656 5656 5656
5643 5643 5643 5643 5642 5642 5642 5642 5642 5641 5641 5641 5641 5640 5640 5640 5640 5640 5639 5639 5639 5639 5638 5638 5638 5638 5638 5638 5638 5638 5638 5638 5638 5638 5638 5638 5638 5638 5638 5639 5639 5639 5640 5639 5639 5639 5640 5640 5640 5641 5641 5642 5643 5643 5644 5644 5644 5644 5645 5645 5645 5645 5646 5646 5646 5647 5647 5648 5648 5649 5649 5649 5650 5650 5650 5651 5651 5651 5652 5652 5653 5653 5654 5654 5654 5655
5642 5642 5642 5642 5642 5642 5642 5641 5641 5641 5641 5641 5640 5640 5640 5640 5640 5640 5640 5640 5640 5639 5639 5639 5638 5638 5638 5638 5638 5638 5638 5638 5638 5638 5638 5638 5638 5638 5638 5638 5638 5639 5639 5639 5639 5639 5639 5640 5640 5640 5641 5641 5642 5642 5643 5643 5643 5643 5643 5644 5644 5644 5645 5645 5646 5646 5646 5647 5647 5648 5648 5648 5649 5649 5649 5650 5650 5650 5651 5651 5651 5652 5652 5652 5653 5653
5641 5641 5641 5641 5641 5641 5641 5641 5641 5641 5640 5640 5640 5640 5640 5639 5639 5639 5639 5639 5639 5639 5639 5639 5639 5638 5638 5638 5638 5638 5638 5638 5638 5638 5638 5638 5638 5638 5638 5638 5638 5638 5638 5638 5638 5638 5639 5639 5639 5639 5640 5640 5641 5641 5641 5642 5642 5642 5642 5642 5643 5643 5643 5644 5644 5645 5645 5646 5646 5646 5647 5647 5647 5648 5648 5649 5649 5649 5650 5650 5650 5651 5651 5651 5651 5651
5641 5641 5641 5640 5640 5640 5640 5640 5640 5640 5640 5639 5639 5639 5639 5639 5639 5638 5638 5638 5639 5639 5638 5638 5638 5638 5638 5638 5638 5638 5638 5638 5638 5638 5638 5638 5638 5638 5638 5638 5638 5638 5638 5638 5638 5638 5638 5638 5638 5638 5639 5639 5639 5640 5640 5640 5641 5641 5641 5641 5641 5642 5642 5643 5643 5643 5644 5644 5645 5645 5645 5646 5646 5647 5647 5647 5648 5648 5648 5649 5649 5649 5649 5649 5650 5650
5639 5639 5639 5639 5639 5639 5639 5639 5639 5639 5639 5639 5638 5638 5638 5638 5638 5638 5638 5638 5638 5638 5638 5638 5638 5638 5638 5638 5638 5638 5638 5638 5638 5638 5638 5638 5638 5638 5638 5638 5638 5638 5638 5638 5638 5638 5638 5637 5637 5637 5637 5638 5638 5638 5639 5639 5639 5639 5640 5640 5640 5641 5641 5641 5642 5642 5642 5643 5643 5643 5644 5644 5645 5645 5646 5646 5646 5646 5647 5647 5647 5647 5648 5648 5648 5648
5638 5638 5638 5638 5638 5638 5638 5638 5638 5638 5638 5638 5638 5637 5637 5637 5637 5637 5637 5637 5637 5637 5637 5637 5637 5637 5637 5637 5637 5637 5637 5637 5637 5637 5637 5637 5638 5638 5638 5637 5637 5637 5637 5637 5637 5637 5637 5637 5637 5637 5637 5636 5637 5637 5637 5637 5638 5638 5638 5638 5639 5639 5640 5640 5641 5641 5641 5641 5642 5642 5642 5643 5643 5643 5644 5644 5645 5645 5645 5646 5646 5646 5646 5646 5646 5646
5637 5637 5637 5637 5637 5637 5637 5637 5637 5637 5637 5637 5637 5636 5636 5636 5636 5636 5636 5636 5636 5636 5636 5636 5636 5636 5636 5636 5636 5636 5636 5636 5636 5636 5636 5636 5637 5637 5637 5636 5636 5636 5636 5636 5636 5636 5636 5636 5636 5636 5636 5636 5636 5636 5636 5636 5636 5636 5637 5637 5637 5637 5638 5638 5639 5639 5640 5640 5640 5641 5641 5641 5641 5642 5642 5642 5643 5643 5644 5644 5644 5644 5644 5644 5644 5645
5636 5636 5636 5636 5636 5636 5636 5636 5636 5636 5636 5636 5636 5636 5635 5635 5635 5635 5635 5635 5635 5635 5635 5635 5635 5635 5635 5635 5635 5635 5635 5635 5635 5635 5635 5635 5636 5636 5636 5636 5636 5635 5635 5635 5635 5635 5635 5635 5635 5635 5635 5635 5635 5635 5635 5635 5635 5635 5635 5636 5636 5636 5636 5637 5637 5637 5638 5638 5639 5639 5639 5640 5640 5640 5641 5641 5641 5641 5642 5642 5642 5642 5643 5643 5643 5643
5634 5634 5634 5634 5634 5634 5634 5634 5634 5634 5634 5634 5634 5634 5634 5634 5634 5634 5634 5634 5634 5633 5633 5633 5633 5633 5633 5633 5634 5634 5634 5633 5633 5633 5633 5633 5634 5634 5634 5634 5634 5634 5634 5634 5634 5633 5633 5633 5633 5633 5633 5633 5633 5633 5633 5633 5633 5634 5634 5634 5634 5634 5635 5635 5636 5636 5636 5636 5637 5637 5637 5638 5638 5638 5639 5639 5639 5640 5640 5640 5641 5641 5641 5641 5641 5641
5632 5632 5632 5633 5633 5633 5633 5633 5633 5633 5633 5633 5632 5632 5632 5632 5632 5632 5632 5632 5632 5632 5632 5632 5632 5632 5632 5632 5632 5632 5632 5631 5631 5631 5631 5631 5631 5632 5632 5632 5632 5632 5633 5632 5632 5632 5632 5632 5632 5631 5631 5631 5631 5631 5631 5631 5632 5632 5632 5632 5632 5633 5633 5633 5634 5634 5634 5635 5635 5635 5636 5636 5636 5636 5637 5637 5638 5638 5638 5639 5639 5639 5639 5639 5639 5639
5630 5630 5631 5631 5631 5631 5631 5631 5631 5631 5631 5631 5631 5631 5631 5631 5631 5631 5631 5631 5631 5631 5631 5631 5631 5631 5630 5630 5630 5630 5630 5630 5630 5630 5630 5630 5630 5630 5630 5630 5630 5630 5631 5631 5631 5631 5631 5631 5630 5630 5630 5630 5630 5630 5630 5630 5630 5630 5630 5630 5631 5631 5631 5631 5632 5632 5632 5633 5633 5633 5634 5634 5634 5635 5635 5636 5636 5636 5636 5637 5637 5637 5637 5637 5638 5638
5628 5628 5629 5629 5629 5629 5629 5629 5629 5629 5629 5629 5629 5629 5629 5629 5629 5629 5629 5629 5629 5629 5629 5629 5629 5629 5629 5629 5629 5628 5628 5628 5628 5628 5628 5628 5627 5628 5628 5628 5628 5628 5628 5628 5629 5629 5629 5629 5629 5629 5628 5628 5628 5628 5628 5628 5628 5628 5628 5628 5628 5629 5629 5629 5630 5630 5630 5631 5631 5631 5631 5632 5632 5632 5633 5633 5634 5634 5635 5635 5635 5636 5636 5636 5636 5636
5626 5626 5626 5627 5627 5627 5627 5627 5627 5627 5627 5627 5627 5627 5627 5626 5626 5626 5626 5626 5626 5627 5627 5627 5627 5627 5627 5627 5627 5627 5626 5626 5626 5626 5626 5626 5626 5626 5626 5626 5626 5626 5626 5626 5626 5626 5627 5626 5626 5627 5627 5626 5626 5626 5626 5626 5626 5626 5626 5626 5626 5626 5626 5627 5627 5628 5628 5628 5629 5629 5629 5629 5630 5630 5631 5631 5631 5632 5633 5633 5633 5634 5634 5634 5634 5634
5624 5624 5624 5624 5625 5625 5625 5625 5625 5625 5625 5625 5625 5625 5625 5625 5625 5625 5625 5625 5625 5625 5625 5625 5625 5625 5625 5625 5625 5625 5625 5624 5624 5624 5624 5624 5624 5623 5623 5623 5623 5623 5623 5624 5624 5624 5624 5624 5624 5624 5624 5625 5625 5624 5624 5624 5624 5624 5624 5624 5623 5624 5624 5624 5625 5625 5625 5626 5626 5626 5627 5627 5627 5628 5628 5629 5629 5630 5630 5631 5631 5632 5632 5632 5632 5632
5621 5621 5622 5622 5622 5622 5622 5622 5622 5622 5622 5622 5622 5622 5622 5622 5622 5622 5623 5623 5623 5623 5623 5623 5623 5623 5623 5623 5623 5622 5622 5622 5622 5622 5622 5621 5621 5621 5621 5621 5621 5621 5621 5621 5621 5621 5621 5621 5621 5621 5621 5622 5622 5622 5622 5622 5622 5622 5621 5621 5621 5621 5621 5621 5621 5622 5622 5623 5623 5624 5624 5625 5625 5625 5626 5626 5627 5627 5628 5629 5629 5630 5630 5630 5631 5631
5619 5619 5619 5619 5619 5619 5620 5620 5620 5620 5620 5620 5620 5620 5620 5620 5620 5620 5621 5621 5621 5621 5621 5621 5621 5621 5621 5621 5621 5620 5620 5620 5620 5620 5619 5619 5619 5619 5619 5619 5618 5618 5618 5619 5619 5619 5619 5619 5619 5619 5619 5619 5619 5619 5619 5619 5619 5620 5619 5619 5619 5619 5619 5619 5619 5619 5619 5620 5620 5621 5621 5622 5622 5623 5623 5624 5624 5625 5626 5626 5627 5627 5628 5628 5628 5629
5616 5616 5616 5617 5617 5617 5617 5617 5617 5617 5617 5618 5618 5618 5618 5618 5618 5618 5618 5618 5618 5618 5618 5618 5618 5618 5618 5618 5618 5618 5618 5617 5617 5617 5617 5617 5616 5616 5616 5616 5616 5616 5616 5616 5616 5616 5616 5616 5616 5616 5616 5616 5616 5616 5616 5616 5616 5616 5616 5616 5616 5616 5616 5616 5616 5616 5616 5617 5617 5618 5618 5619 5619 5620 5621 5621 5621 5622 5623 5624 5624 5625 5625 5626 5626 5626
5614 5614 5614 5614 5614 5615 5615 5615 5615 5615 5615 5615 5615 5615 5615 5615 5615 5616 5616 5616 5616 5616 5616 5616 5616 5616 5615 5615 5616 5616 5615 5615 5615 5614 5614 5614 5614 5614 5614 5614 5613 5613 5613 5613 5613 5613 5613 5613 5613 5613 5613 5613 5613 5613 5613 5613 5613 5613 5613 5613 5614 5614 5613 5613 5613 5613 5613 5613 5614 5615 5615 5616 5616 5617 5617 5618 5619 5620 5620 5621 5621 5622 5623 5623 5624 5624
5611 5611 5611 5612 5612 5612 5612 5612 5612 5612 5612 5612 5613 5613 5613 5613 5613 5613 5613 5613 5613 5613 5613 5613 5613 5613 5612 5612 5613 5613 5613 5612 5612 5612 5612 5611 5611 5611 5611 5611 5611 5611 5611 5610 5610 5610 5610 5610 5610 5610 5610 5610 5610 5610 5610 5610 5610 5610 5610 5610 5610 5610 5610 5611 5611 5610 5610 5611 5611 5611 5611 5612 5613 5614 5615 5615 5616 5617 5617 5618 5619 5620 5620 5621 5621 5622
5608 5609 5609 5609 5609 5609 5610 5610 5610 5610 5610 5610 5610 5610 5610 5610 5610 5610 5610 5610 5610 5610 5610 5610 5610 5610 5610 5610 5610 5610 5610 5610 5610 5610 5609 5609 5609 5608 5608 5608 5608 5608 5608 5607 5607 5607 5607 5607 5607 5607 5607 5607 5607 5607 5607 5607 5607 5607 5607 5607 5607 5607 5607 5607 5607 5607 5607 5607 5607 5608 5608 5609 5610 5611 5611 5612 5613 5614 5615 5615 5616 5617 5617 5618 5619 5619
5606 5606 5606 5606 5606 5606 5607 5607 5607 5607 5607 5608 5608 5607 5607 5607 5607 5607 5607 5607 5607 5607 5607 5607 5607 5607 5607 5607 5607 5607 5607 5606 5607 5607 5607 5606 5606 5606 5606 5605 5605 5605 5605 5605 5605 5604 5604 5604 5604 5604 5604 5604 5604 5604 5604 5604 5604 5604 5604 5604 5604 5604 5604 5604 5604 5604 5604 5604 5604 5605 5605 5606 5606 5607 5608 5609 5610 5611 5611 5612 5613 5614 5615 5615 5616 5617
5602 5603 5603 5603 5604 5604 5604 5604 5605 5605 5605 5605 5605 5605 5605 5604 5604 5604 5604 5604 5604 5604 5604 5604 5604 5604 5604 5604 5604 5604 5604 5604 5604 5604 5604 5604 5603 5603 5603 5603 5602 5602 5602 5602 5602 5601 5601 5601 5601 5601 5601 5601 5601 5601 5601 5601 5601 5601 5601 5601 5601 5600 5600 5600 5600 5600 5601 5601 5601 5601 5601 5602 5603 5603 5605 5606 5606 5607 5608 5610 5610 5611 5612 5613 5614 5614
5600 5600 5600 5601 5601 5601 5601 5601 5602 5602 5602 5602 5602 5602 5602 5601 5601 5601 5601 5601 5601 5601 5601 5601 5601 5601 5601 5601 5601 5601 5601 5601 5601 5601 5601 5601 5601 5600 5600 5600 5600 5600 5600 5599 5599 5599 5599 5598 5598 5598 5598 5598 5598 5598 5598 5598 5598 5598 5598 5597 5597 5597 5597 5597 5597 5597 5597 5597 5597 5598 5598 5599 5599 5600 5601 5602 5603 5604 5605 5606 5607 5608 5609 5610 5611 5612
5597 5597 5597 5598 5598 5598 5598 5599 5599 5599 5599 5599 5599 5599 5599 5598 5598 5598 5598 5598 5598 5598 5597 5597 5597 5597 5597 5597 5597 5597 5597 5597 5597 5597 5597 5597 5597 5597 5597 5597 5597 5597 5597 5596 5596 5596 5596 5596 5595 5595 5595 5595 5595 5595 5595 5595 5595 5595 5594 5594 5594 5594 5594 5593 5593 5593 5593 5593 5594 5594 5595 5595 5596 5596 5597 5598 5600 5601 5602 5603 5605 5605 5606 5607 5608 5609